User: anonymous   Login
Location: Unspecified
(0.0000°N, 0.0000°E)
Time: 15:58:46
(UTC+00:00)
Language:

SBIRS GEO 1 (USA 230) - Orbit

View from above orbital plane
View from above orbital plane
View from above satellite
View from above satellite

Ground track
Ground track

The orbit data is extracted from the following two-line orbital elements,

1 37481U 11019A   20050.11984459 -.00000022  00000-0  00000+0 0  9997
2 37481   2.1921 338.8323 0001734 356.4901 282.5307  1.00272132 32171
Epoch (UTC): 19 February 2020 02:52:34
Eccentricity: 0.0001734
inclination: 2.1921°
perigee height: 35779 km
apogee height: 35793 km
right ascension of ascending node: 338.8323°
argument of perigee: 356.4901°
revolutions per day: 1.00272132
mean anomaly at epoch: 282.5307°
orbit number at epoch: 3217

The dashed part of the orbit path shows where the satellite is in the earth's shadow,  

DLR